Weather History for False Pass, AK

Change the Weather History Date:

Sunday, March 2, 2014

  Actual Average (PACD) Record (PACD)
Temperature  
Mean Temperature 40 °F 30 °F  
Max Temperature 41 °F 35 °F 56 °F (1974)
Min Temperature 37 °F 25 °F -5 °F (1956)
Degree Days  
Heating Degree Days 25 35  
Month to date heating degree days 70  
Since 1 July heating degree days 6294  
Cooling Degree Days 0    
Month to date cooling degree days  
Year to date cooling degree days  
Moisture  
Dew Point 33 °F    
Average Humidity 74    
Maximum Humidity 82    
Minimum Humidity 65    
Precipitation  
Precipitation 0.00 in 0.10 in 0.93 in (2003)
Month to date precipitation 0.20  
Year to date precipitation 6.34  
Snow  
Snow 0.00 in 0.50 in 7.40 in (2012)
Month to date snowfall 0.9  
Since 1 July snowfall 53.1  
Snow Depth -    
Sea Level Pressure  
Sea Level Pressure 29.90 in    
Wind  
Wind Speed 7 mph (ENE)    
Max Wind Speed 13 mph    
Max Gust Speed 18 mph    
Visibility 10 miles    
Events Rain    
T = Trace of Precipitation, MM = Missing Value Source: NWS Daily Summary

Daily Weather History Graph

Daily Weather History Graph

Search for Another Location

Airport:

Trip Planner

Search our weather history database for the weather conditions in past years. The results will help you decide how hot, cold, wet, or windy it might be!

Date:

Astronomy

Mar. 02, 2014 Rise Set
Actual Time 7:40 AM HAST 6:32 PM HAST
Civil Twilight 7:04 AM HAST 7:08 PM HAST
Nautical Twilight 6:22 AM HAST 7:50 PM HAST
Astronomical Twilight 5:40 AM HAST 8:32 PM HAST
Moon 7:57 AM HAST (3/2) 9:09 PM HAST (3/2)
Length of Visible Light 12h 04m
Length of Day
10h 52m
Waxing Crescent, 3% of the Moon is Illuminated
Mar 2
Waxing Crescent
Mar 8
First Quarter
Mar 16
Full
Mar 23
Last Quarter
Mar 30
New

Hourly Weather History & Observations

Time (HAST) Temp. Windchill Dew Point Humidity Pressure Visibility Wind Dir Wind Speed Gust Speed Precip Events Conditions
12:01 AM 39.9 °F 34.5 °F 34.0 °F 79% 29.91 in 10.0 mi NE 8.1 mph - 0.00 in   Overcast
1:01 AM 39.9 °F 34.5 °F 34.0 °F 79% 29.91 in 10.0 mi ESE 8.1 mph - 0.00 in Rain Light Rain
2:01 AM 39.9 °F - 34.0 °F 79% 29.92 in 10.0 mi Calm Calm - 0.00 in   Overcast
3:01 AM 41.0 °F 35.8 °F 33.1 °F 73% 29.92 in 10.0 mi NNW 8.1 mph 18.4 mph 0.00 in Rain Light Rain
4:01 AM 41.0 °F 38.0 °F 32.0 °F 70% 29.92 in 10.0 mi Variable 4.6 mph - 0.00 in   Overcast
5:01 AM 41.0 °F - 32.0 °F 70% 29.92 in 10.0 mi Calm Calm - N/A   Overcast
6:01 AM 39.0 °F - 33.1 °F 79% 29.93 in 10.0 mi Calm Calm - 0.00 in Rain Light Rain
7:01 AM 39.9 °F 36.7 °F 32.0 °F 73% 29.94 in 10.0 mi North 4.6 mph - 0.00 in Rain Light Rain
8:01 AM 39.9 °F 33.4 °F 32.0 °F 73% 29.94 in 10.0 mi NNE 10.4 mph 16.1 mph 0.00 in   Overcast
9:01 AM 41.0 °F 35.8 °F 30.2 °F 65% 29.67 in 10.0 mi NE 8.1 mph - N/A   Overcast
9:44 AM 41.0 °F 39.0 °F 33.8 °F 76% 29.68 in 10.0 mi Variable 3.5 mph - N/A   Overcast
10:01 AM 41.0 °F 35.8 °F 33.1 °F 73% 29.96 in 10.0 mi ENE 8.1 mph - N/A   Overcast
11:01 AM 41.0 °F 37.1 °F 33.1 °F 73% 29.97 in 10.0 mi Variable 5.8 mph - N/A   Overcast
11:51 AM 41.0 °F 37.1 °F 32.0 °F 70% 29.70 in 10.0 mi East 5.8 mph - N/A   Overcast
12:01 PM 41.0 °F 33.9 °F 32.0 °F 70% 29.98 in 10.0 mi East 12.7 mph 18.4 mph N/A   Overcast
1:01 PM 41.0 °F 35.2 °F 32.0 °F 70% 29.99 in 10.0 mi East 9.2 mph - N/A   Overcast
1:16 PM 41.0 °F 34.3 °F 33.8 °F 76% 29.71 in 10.0 mi East 11.5 mph 18.4 mph N/A   Overcast
2:01 PM 41.0 °F 35.8 °F 33.1 °F 73% 29.99 in 10.0 mi East 8.1 mph 16.1 mph N/A   Overcast
3:01 PM 41.0 °F 39.0 °F 33.1 °F 73% 29.99 in 10.0 mi Variable 3.5 mph - N/A   Overcast
3:54 PM 41.0 °F 34.3 °F 33.8 °F 76% 29.71 in 10.0 mi East 11.5 mph 18.4 mph N/A   Mostly Cloudy
4:01 PM 41.0 °F 33.9 °F 33.1 °F 73% 29.99 in 10.0 mi East 12.7 mph 18.4 mph N/A   Mostly Cloudy
4:26 PM 41.0 °F 35.2 °F 33.8 °F 76% 29.71 in 10.0 mi East 9.2 mph - N/A   Overcast
5:01 PM 39.9 °F 32.9 °F 33.1 °F 77% 30.00 in 10.0 mi ENE 11.5 mph - 0.00 in   Overcast
6:01 PM 39.0 °F - 34.0 °F 82% 30.01 in 10.0 mi Calm Calm - 0.00 in   Overcast
7:01 PM 39.0 °F 34.8 °F 33.1 °F 79% 30.02 in 10.0 mi ENE 5.8 mph - 0.00 in   Overcast
7:19 PM 39.2 °F 37.0 °F 33.8 °F 81% 29.74 in 10.0 mi Variable 3.5 mph - N/A   Overcast
7:33 PM 39.2 °F 34.2 °F 32.0 °F 75% 29.74 in 10.0 mi Variable 6.9 mph - N/A   Overcast
8:01 PM 39.0 °F 34.0 °F 30.0 °F 70% 30.02 in 10.0 mi East 6.9 mph - N/A   Overcast
8:11 PM 39.2 °F 35.0 °F 30.2 °F 70% 29.74 in 10.0 mi East 5.8 mph - N/A   Overcast
9:01 PM 39.0 °F 31.8 °F 30.9 °F 73% 30.04 in 10.0 mi ENE 11.5 mph - N/A   Overcast
10:01 PM 39.0 °F 32.3 °F 30.0 °F 70% 30.04 in 10.0 mi East 10.4 mph - N/A   Scattered Clouds
11:01 PM 37.9 °F 30.9 °F 30.9 °F 76% 30.05 in 10.0 mi East 10.4 mph - N/A   Mostly Cloudy